www.pogodaiklimat.ru

Погода и климат >> Архив погоды >> Россия >> Самарская область >> Сызрань


ПОГОДА в Сызрани

АРХИВ ПОГОДЫ в Сызрани

Время (UTC), дата Ветер
(напр.,м/с)
 
Видим.   Явления Облачность Т
(С)
Тd
(С)
f
(%)
Тe
(С)
Тes
(С)
Комфортность P
(гПа)
Po
(гПа)
Тmin
(С)
Tmax
(С)
R
(мм)
R24
(мм)
S
(см)
00 16.10 З 2 13 км 10/10 360 м
[St]
+12.0 +9.7 86 +11 +11 тепло 1023.2 1010.6
03 16.10 З 2 4000 м слабый дождь 10/10 300 м
[St]
+10.8 +8.6 86 +9 +9 тепло 1023.3 1010.6 +9.6 0.0
06 16.10 З 3 20 км {дождь} 1/0
[Ci fib]
+12.4 +8.4 77 +11 +12 тепло 1023.0 1010.4
09 16.10 З 3 20 км 1/0
[Ci fib]
+19.9 +4.5 36 +21 +24 комфорт 1022.1 1009.9
12 16.10 СЗ 3 20 км 1/0
[Ci fib]
+21.9 -0.4 23 +21 +22 комфорт 1021.5 1009.4
15 16.10 З 2 20 км 10/0
[Ci fib]
+15.6 +3.6 45 +16 +16 тепло 1022.1 1009.7 +22.3
18 16.10 З 2 21 км 4/0
[Ci fib]
+12.0 +4.8 61 +11 +11 тепло 1022.2 1009.6
21 16.10 З 3 20 км 3/0
[Ci fib]
+9.3 +5.3 76 +7 +7 тепло 1021.4 1008.7
00 17.10 З 2 20 км ясно +6.6 +3.8 82 +4 +4 по сезону 1020.7 1007.9
03 17.10 З 2 20 км 8/0
[Ac trans Cc]
+7.0 +3.4 78 +5 +5 по сезону 1020.2 1007.4 +6.1
06 17.10 З 4 20 км ясно +9.5 +4.3 70 +7 +8 тепло 1019.1 1006.4 +6.0
09 17.10 СЗ 3 20 км ясно +17.7 +3.5 39 +18 +21 тепло 1018.1 1005.8
12 17.10 СЗ 4
{10}
20 км 6/0
[Ci fib]
+18.1 +4.6 41 +18 +19 тепло 1019.0 1006.7
15 17.10 СЗ 2
{12}
20 км ясно +12.0 +5.1 63 +11 +11 тепло 1022.0 1009.4 +18.9
18 17.10 С 2 21 км ясно +9.6 +3.4 65 +8 +8 тепло 1023.7 1011.0
21 17.10 С 2 20 км ясно +5.6 +1.3 74 +3 +3 по сезону 1025.3 1012.4
00 18.10 СЗ 1 20 км ясно +2.5 -0.4 81 +1 +1 по сезону 1026.8 1013.7
03 18.10 штиль 0 20 км 3/0
[Ci fib]
-0.2 -1.9 88 -1 -1 по сезону 1027.4 1014.2 -0.2
06 18.10 Ю 1 20 км ясно +7.3 +1.2 65 +7 +9 тепло 1027.7 1014.8 -0.4
09 18.10 З 3 20 км ясно +11.7 -1.4 40 +10 +14 тепло 1026.9 1014.2
12 18.10 З 3 20 км ясно +13.3 -1.1 37 +12 +13 тепло 1025.0 1012.4
15 18.10 Ю 1 20 км 3/0
[Ac trans]
+6.3 +2.6 77 +5 +5 по сезону 1024.2 1011.3 +13.4
18 18.10 З 1 18 км 4/0
[Ac trans Ci fib]
+6.1 +1.2 71 +5 +5 по сезону 1023.2 1010.4
21 18.10 З 1 18 км 4/0
[Ac trans Ci fib]
+6.2 +1.7 73 +5 +5 тепло 1022.8 1009.9
00 19.10 З 2 20 км ясно +5.7 +2.2 78 +3 +3 по сезону 1022.1 1009.2
03 19.10 З 2 20 км ясно +4.7 +2.3 84 +2 +2 по сезону 1021.0 1008.1 +3.9
06 19.10 З 2 20 км ясно +9.0 +4.6 74 +7 +9 тепло 1020.2 1007.5
09 19.10 З 5 20 км 8/0
[Ac trans Ci fib]
+17.0 +6.3 49 +16 +18 тепло 1018.9 1006.6
12 19.10 З 4-10
{10}
20 км ясно +19.1 +6.0 42 +20 +20 тепло 1017.7 1005.5
15 19.10 ЮЗ 3
{10}
18 км 8/3 600 м
[Sc Ac trans]
+15.1 +6.3 56 +15 +15 тепло 1017.2 1004.8 +19.1
18 19.10 З 4 21 км 5/0
[Ac trans Ci fib]
+13.5 +5.5 58 +12 +12 тепло 1016.9 1004.4
21 19.10 З 3 20 км 9/0
[Ac trans]
+11.6 +5.2 65 +10 +10 тепло 1016.2 1003.7
00 20.10 З 2 20 км ясно +9.6 +4.4 70 +8 +8 тепло 1015.5 1002.9
03 20.10 З 3 20 км 10/3 600 м
[Sc Ac trans Ci fib]
+9.0 +2.6 64 +7 +7 тепло 1014.7 1002.1 +8.5
06 20.10 З 4 20 км 9/1 1000 м
[Sc Ac trans Ci fib]
+10.6 +3.4 61 +8 +9 тепло 1014.5 1002.0 +7.8
09 20.10 З 3 20 км 10/6 750 м
[Sc Ac As]
+13.9 +4.5 53 +13 +13 тепло 1014.6 1002.2
12 20.10 З 2 20 км 8/3 600 м
[Sc diur, vesp Ac trans Ci fib]
+14.4 +6.4 59 +14 +15 тепло 1015.0 1002.6
15 20.10 СЗ 2 20 км 6/0
[Ci fib]
+7.8 +1.8 66 +6 +6 по сезону 1016.9 1004.2 +14.4
18 20.10 С 2 20 км 3/0
[Ci fib]
+5.5 0.0 68 +3 +3 по сезону 1018.3 1005.4
21 20.10 СЗ 2 22 км 1/0
[Ci fib]
+4.0 -0.1 75 +1 +1 по сезону 1019.9 1007.0
00 21.10 СЗ 2 21 км 1/0
[Ci fib]
+1.9 -0.8 82 -1 -1 по сезону 1020.6 1007.6
03 21.10 З 1 20 км 10/10 720 м
[Sc]
+1.7 -1.1 82 0 0 по сезону 1022.0 1009.0 +0.3
06 21.10 З 1 20 км 9/4 1000 м
[Sc Ac trans]
+4.2 +0.4 76 +3 +3 по сезону 1023.7 1010.7
09 21.10 СВ 2 20 км 8/4 1000 м
[Cb calv Ac trans Ci fib]
+9.9 -1.4 45 +9 +10 тепло 1024.1 1011.3
12 21.10 В 2 20 км 8/4 1000 м
[Sc Ac trans]
+9.8 -0.6 48 +9 +9 тепло 1024.6 1011.9
15 21.10 СВ 1 20 км 8/4 1000 м
[Sc Ac trans]
+6.6 +0.6 65 +6 +6 по сезону 1025.9 1013.0 +10.7
18 21.10 С 1 21 км 8/0
[Ci fib]
+4.6 +0.2 73 +4 +4 по сезону 1026.5 1013.7
21 21.10 С 1 20 км 9/0
[Ac trans Ci fib]
+1.9 -0.9 82 0 0 по сезону 1027.8 1014.7
00 22.10 ЮЗ 1 20 км 10/0
[Ac trans Ci fib]
+3.4 +0.2 80 +2 +2 по сезону 1027.9 1014.9
03 22.10 штиль 0 20 км 9/9 960 м
[Sc]
+3.2 -0.1 79 +2 +2 по сезону 1028.2 1015.1 +1.2
06 22.10 Ю 1 20 км 8/4 1000 м
[Sc Ac trans Ci fib]
+6.6 +0.2 64 +6 +7 тепло 1028.1 1015.2
09 22.10 Ю 2 20 км 9/4 1000 м
[Cb calv Ac trans Ci fib]
+9.0 +0.3 54 +8 +9 тепло 1027.6 1014.8
12 22.10 Ю 3 20 км ясно +9.4 -1.6 46 +8 +8 тепло 1025.4 1012.7
15 22.10 ЮЗ 2 20 км ясно +6.1 -1.3 59 +4 +4 по сезону 1025.1 1012.2 +9.8
18 22.10 Ю 1 20 км 3/0
[Ci fib]
+7.0 -0.9 57 +7 +7 тепло 1023.5 1010.7

 

Местоположение метеостанции Сызрань (Самарская область, Россия): широта 53.18 долгота 48.40 высота над уровнем моря 103 м.

В архиве по умолчанию представлена погода в Сызрани за последнюю неделю. Архивные данные за месяц целиком и за предыдущие месяцы, начиная с января 2011 года, Вы можете получить, выбрав интересующий диапазон дат из раскрывающегося списка и нажав кнопку "Ввод!".


*Определитесь, кто Вы:
робот инопланетянин человек

Внимание! Время в таблицах - всемирное. Для получения местного времени необходимо прибавить поправку, которая в Сызрани равна 4 ч.

Смотрите также архив погоды в соседних городах и на ближайших метеорологических станциях:

Погода в Приволжье (Самарская область, Россия) (37 км)
Погода в Новодевичьем (Самарская область, Россия) (55 км)
Погода в Канадее (Ульяновская область, Россия) (59 км)
Погода в Тольятти (Самарская область, Россия) (71 км)
Погода в Безенчуке (Самарская область, Россия) (72 км)
Погода в Хвалынске (Саратовская область, Россия) (79 км)
Погода в Чапаевске (Самарская область, Россия) (91 км)
Погода в Сенгилее (Ульяновская область, Россия) (92 км)
Погода в Аглосе (Самарская область, Россия) (116 км)
Погода в Самаре АМС (Самарская область, Россия) (117 км)

Пояснения к столбцам:

Ветер - указаны скорость ветра в м/с - средняя за 10 мин, порывы в срок и между сроками (в фигурных скобках) и направление, откуда дует ветер: С - северный, СВ - северо-восточный, В - восточный, ЮВ - юго-восточный, Ю - южный, ЮЗ - юго-западный, З - западный, СЗ - северо-западный.
Видимость - горизонтальная дальность видимости в метрах или километрах. При видимости от 1 до 10 км при отсутствии осадков обычно наблюдается дымка, при ухудшении видимости до 1 км и менее - туман. В сухую погоду видимость может ухудшаться дымом, пылью или мглою.
Явления - указаны атмосферные явления, наблюдавшиеся в срок или в последний час перед сроком; фигурными скобками обозначены явления, наблюдавшиеся между сроками (за 1-3 часа до срока); квадратными скобками обозначены град или гололедные отложения с указанием их диаметра в мм.
Облачность - указаны через наклонную черту общая и нижняя облачность в баллах и высота нижней границы облаков в метрах; квадратными скобками обозначены формы облаков: Ci - перистые, Cs - перисто-слоистые, Cc - перисто-кучевые, Ac - высококучевые, As - высокослоистые, Sc - слоисто-кучевые, Ns - слоисто-дождевые, Cu - кучевые, Cb - кучево-дождевые. Подробнее классификацию облаков см. в Атласе облаков (PDF).
T - Температура воздуха - температура, измеренная на высоте 2 м над землей.
Td - Температура точки росы - температура, при понижении до которой содержащийся в воздухе водяной пар достигнет насыщения.
f - Относительная влажность воздуха - влажноcть воздуха, измеренная на высоте 2 м над землей.
Te - Эффективная температура - температура, которую ощущает одетый по сезону человек в тени. Характеристика душности погоды. При расчете учитывается влияние влажности воздуха и скорости ветра на теплоощущения человека.
Tes - Эффективная температура на солнце - температура, которую ощущает человек, с поправкой на солнечный нагрев. Характеристика знойности погоды. Зависит от высоты солнца над горизонтом, облачности и скорости ветра. Ночью, в пасмурную погоду, а также при ветре 12 м/с и более поправка равна нулю.
P - Атмосферное давление - приведенное к уровню моря атмосферное давление.
Po - Атмосферное давление - измеренное на уровне метеостанции атмосферное давление.
Tmin - Минимальная температура - минимум температуры воздуха на высоте 2 м над землей.
Tmax - Максимальная температура - максимум температуры воздуха на высоте 2 м над землей.
R - Количество осадков - Количество выпавших осадков за период времени, мм. При наведении курсора мыши на число - период времени, за который выпало указанное количество осадков.
R24 - Количество осадков - Количество выпавших осадков за 24 часа, мм.
S - Снежный покров - Высота снежного покрова, см. При наведении курсора мыши на число - состояние снежного покрова и степень покрытия местности в баллах.